BTK6589 WAAA-WARR

Flight info

Callsign BTK6589
Flight time N/A
Altitude 34000
Route ENDOG W32 SUSIL W32N KOLTA
Aircraft A20N/M-SDE2E3FGHIRWXY/LB1

Departure

Time 2026-04-21 13:01
Airport Sultan Hasanuddin International Airport (WAAA)

Arrival

Time N/A
Airport Juanda International Airport (WARR)
Time Latitude Longitude Altitude Speed Heading
2026-04-21 12:35 -5.07754 119.54732 42 ft 0 kts 300°
2026-04-21 12:48 -5.07755 119.54734 43 ft 2 kts 300°
2026-04-21 12:48 -5.07763 119.54748 41 ft 2 kts 300°
2026-04-21 12:49 -5.07771 119.54762 44 ft 2 kts 300°
2026-04-21 12:49 -5.07779 119.54776 40 ft 2 kts 300°
2026-04-21 12:49 -5.07787 119.54790 43 ft 2 kts 300°
2026-04-21 12:49 -5.07795 119.54805 42 ft 2 kts 300°
2026-04-21 12:50 -5.07804 119.54819 41 ft 2 kts 300°
2026-04-21 12:50 -5.07812 119.54833 42 ft 2 kts 300°
2026-04-21 12:50 -5.07820 119.54847 42 ft 2 kts 289°
2026-04-21 12:50 -5.07821 119.54863 39 ft 2 kts 255°
2026-04-21 12:51 -5.07813 119.54877 41 ft 2 kts 220°
2026-04-21 12:51 -5.07799 119.54885 41 ft 2 kts 186°
2026-04-21 12:51 -5.07787 119.54884 42 ft 1 kts 160°
2026-04-21 12:51 -5.07782 119.54882 40 ft 0 kts 150°
2026-04-21 12:52 -5.07780 119.54881 40 ft 0 kts 145°
2026-04-21 12:54 -5.07783 119.54881 44 ft 0 kts 162°
2026-04-21 12:54 -5.07786 119.54879 44 ft 0 kts 209°
2026-04-21 12:55 -5.07793 119.54869 41 ft 4 kts 234°
2026-04-21 12:55 -5.07828 119.54831 44 ft 10 kts 210°
2026-04-21 12:55 -5.07911 119.54784 44 ft 17 kts 211°
2026-04-21 12:55 -5.07995 119.54751 44 ft 13 kts 168°
2026-04-21 12:56 -5.08051 119.54818 44 ft 14 kts 122°
2026-04-21 12:56 -5.08138 119.54829 41 ft 14 kts 208°
2026-04-21 12:56 -5.08232 119.54777 44 ft 16 kts 211°
2026-04-21 12:56 -5.08334 119.54714 44 ft 18 kts 210°
2026-04-21 12:57 -5.08447 119.54652 44 ft 19 kts 210°
2026-04-21 12:57 -5.08568 119.54581 44 ft 21 kts 210°
2026-04-21 12:57 -5.08697 119.54507 44 ft 22 kts 209°
2026-04-21 12:57 -5.08833 119.54429 43 ft 23 kts 210°
2026-04-21 12:58 -5.08952 119.54360 44 ft 18 kts 209°
2026-04-21 12:58 -5.09060 119.54298 44 ft 14 kts 210°
2026-04-21 12:58 -5.09150 119.54283 44 ft 14 kts 152°
2026-04-21 12:58 -5.09169 119.54302 44 ft 0 kts 129°
2026-04-21 12:59 -5.09173 119.54308 44 ft 2 kts 121°
2026-04-21 12:59 -5.09184 119.54326 44 ft 4 kts 120°
2026-04-21 13:00 -5.09212 119.54372 45 ft 10 kts 120°
2026-04-21 13:00 -5.09213 119.54420 43 ft 9 kts 27°
2026-04-21 13:00 -5.09135 119.54460 46 ft 18 kts 30°
2026-04-21 13:00 -5.08901 119.54595 46 ft 68 kts 30°
2026-04-21 13:01 -5.08304 119.54938 42 ft 128 kts 30°
2026-04-21 13:01 -5.07395 119.55464 119 ft 165 kts 31°
2026-04-21 13:01 -5.06406 119.56019 646 ft 162 kts 26°
2026-04-21 13:01 -5.05295 119.56224 1157 ft 167 kts 359°
2026-04-21 13:02 -5.04038 119.56173 1474 ft 195 kts 357°
2026-04-21 13:02 -5.02599 119.56085 1808 ft 217 kts 358°
2026-04-21 13:02 -4.99236 119.55957 2476 ft 259 kts 359°
2026-04-21 13:03 -4.97392 119.55899 3134 ft 264 kts 356°
2026-04-21 13:03 -4.95664 119.55278 3771 ft 271 kts 323°
2026-04-21 13:03 -4.94548 119.53788 4425 ft 277 kts 290°
2026-04-21 13:03 -4.94393 119.51864 5052 ft 282 kts 260°
2026-04-21 13:04 -4.94785 119.49930 5748 ft 283 kts 258°
2026-04-21 13:04 -4.95108 119.47972 6430 ft 286 kts 263°
2026-04-21 13:04 -4.95292 119.45976 7069 ft 289 kts 266°
2026-04-21 13:04 -4.95374 119.43955 7713 ft 292 kts 269°
2026-04-21 13:05 -4.95395 119.41911 8368 ft 295 kts 270°
2026-04-21 13:05 -4.95382 119.39846 9024 ft 298 kts 271°
2026-04-21 13:05 -4.95363 119.38466 9464 ft 300 kts 271°
2026-04-21 13:05 -4.95309 119.35648 10233 ft 307 kts 271°
2026-04-21 13:06 -4.95277 119.34203 10414 ft 318 kts 271°
2026-04-21 13:06 -4.95224 119.31929 10641 ft 335 kts 271°
2026-04-21 13:06 -4.95166 119.29544 10865 ft 350 kts 271°
2026-04-21 13:06 -4.95084 119.26220 11332 ft 361 kts 271°
2026-04-21 13:07 -4.95043 119.24543 11637 ft 364 kts 271°
2026-04-21 13:07 -4.94979 119.21995 12128 ft 367 kts 271°
2026-04-21 13:07 -4.94915 119.19429 12631 ft 370 kts 271°
2026-04-21 13:07 -4.94850 119.16838 13133 ft 373 kts 271°
2026-04-21 13:08 -4.94785 119.14231 13615 ft 376 kts 271°
2026-04-21 13:08 -4.94719 119.11606 13836 ft 377 kts 271°
2026-04-21 13:08 -4.94652 119.08974 13872 ft 378 kts 271°
2026-04-21 13:08 -4.94586 119.06334 13876 ft 379 kts 271°
2026-04-21 13:09 -4.94519 119.03686 13875 ft 380 kts 271°
2026-04-21 13:09 -4.94452 119.01040 13878 ft 380 kts 271°
2026-04-21 13:09 -4.94385 118.98394 13880 ft 380 kts 271°
2026-04-21 13:09 -4.94318 118.95750 13884 ft 379 kts 271°
2026-04-21 13:10 -4.94250 118.93106 13881 ft 379 kts 272°
2026-04-21 13:10 -4.94183 118.90459 13881 ft 379 kts 271°
2026-04-21 13:10 -4.94116 118.87845 13881 ft 379 kts 271°
2026-04-21 13:10 -4.94049 118.85201 13882 ft 380 kts 271°
2026-04-21 13:11 -4.93981 118.82557 13879 ft 380 kts 272°
2026-04-21 13:11 -4.93913 118.79903 13880 ft 380 kts 272°
2026-04-21 13:11 -4.93878 118.77257 13880 ft 380 kts 268°
2026-04-21 13:11 -4.94305 118.74642 14045 ft 383 kts 252°
2026-04-21 13:12 -4.95483 118.72276 14746 ft 374 kts 235°
2026-04-21 13:12 -4.97008 118.70210 15681 ft 362 kts 231°
2026-04-21 13:12 -4.98554 118.68261 16630 ft 351 kts 230°
2026-04-21 13:12 -5.00059 118.66385 17596 ft 339 kts 230°
2026-04-21 13:13 -5.01495 118.64590 18506 ft 328 kts 230°
2026-04-21 13:13 -5.02894 118.62838 19345 ft 316 kts 230°
2026-04-21 13:13 -5.04253 118.61133 20060 ft 311 kts 230°
2026-04-21 13:13 -5.05603 118.59438 20611 ft 311 kts 230°
2026-04-21 13:14 -5.06960 118.57732 21085 ft 314 kts 230°
2026-04-21 13:14 -5.08328 118.56012 21543 ft 317 kts 230°
2026-04-21 13:14 -5.09708 118.54275 22004 ft 319 kts 230°
2026-04-21 13:14 -5.11100 118.52524 22451 ft 322 kts 230°
2026-04-21 13:15 -5.12506 118.50755 22901 ft 325 kts 230°
2026-04-21 13:15 -5.13921 118.48974 23338 ft 328 kts 230°
2026-04-21 13:15 -5.15332 118.47198 23711 ft 331 kts 230°
2026-04-21 13:15 -5.16773 118.45384 24057 ft 334 kts 231°
2026-04-21 13:16 -5.18227 118.43553 24421 ft 336 kts 231°
2026-04-21 13:16 -5.19692 118.41708 24785 ft 339 kts 231°
2026-04-21 13:16 -5.21167 118.39851 25145 ft 342 kts 231°
2026-04-21 13:16 -5.22658 118.37978 25506 ft 344 kts 230°
2026-04-21 13:17 -5.24258 118.36183 25870 ft 346 kts 223°
2026-04-21 13:17 -5.26073 118.34588 26222 ft 348 kts 217°
2026-04-21 13:17 -5.28004 118.33113 26568 ft 350 kts 216°
2026-04-21 13:17 -5.29969 118.31655 26900 ft 352 kts 216°
2026-04-21 13:18 -5.31948 118.30190 27224 ft 355 kts 216°
2026-04-21 13:18 -5.33939 118.28714 27554 ft 357 kts 216°
2026-04-21 13:18 -5.35941 118.27226 27853 ft 359 kts 216°
2026-04-21 13:18 -5.37955 118.25728 28140 ft 362 kts 216°
2026-04-21 13:19 -5.39982 118.24219 28451 ft 364 kts 216°
2026-04-21 13:19 -5.42024 118.22699 28744 ft 366 kts 216°
2026-04-21 13:19 -5.44046 118.21193 29030 ft 368 kts 216°
2026-04-21 13:19 -5.46112 118.19653 29318 ft 371 kts 216°
2026-04-21 13:20 -5.48186 118.18108 29601 ft 373 kts 216°
2026-04-21 13:20 -5.50275 118.16552 29879 ft 375 kts 216°
2026-04-21 13:20 -5.52359 118.14956 30121 ft 377 kts 219°
2026-04-21 13:20 -5.54283 118.13160 30353 ft 380 kts 227°
2026-04-21 13:21 -5.55949 118.11095 30583 ft 382 kts 236°
2026-04-21 13:21 -5.57297 118.08794 30810 ft 384 kts 244°
2026-04-21 13:21 -5.58319 118.06309 31045 ft 385 kts 250°
2026-04-21 13:21 -5.59204 118.03763 31283 ft 387 kts 251°
2026-04-21 13:22 -5.60070 118.01195 31517 ft 389 kts 251°
2026-04-21 13:22 -5.60940 117.98618 31741 ft 391 kts 251°
2026-04-21 13:22 -5.61806 117.96067 31982 ft 392 kts 251°
2026-04-21 13:22 -5.62690 117.93469 32218 ft 393 kts 251°
2026-04-21 13:23 -5.63578 117.90863 32449 ft 395 kts 251°
2026-04-21 13:23 -5.64470 117.88248 32672 ft 397 kts 251°
2026-04-21 13:23 -5.65366 117.85627 32889 ft 398 kts 251°
2026-04-21 13:23 -5.66267 117.82988 33102 ft 400 kts 251°
2026-04-21 13:24 -5.67169 117.80346 33311 ft 401 kts 251°
2026-04-21 13:24 -5.68076 117.77689 33518 ft 403 kts 251°
2026-04-21 13:24 -5.68987 117.75022 33716 ft 404 kts 251°
2026-04-21 13:24 -5.69902 117.72343 33865 ft 407 kts 251°
2026-04-21 13:25 -5.71768 117.66876 33890 ft 420 kts 251°
2026-04-21 13:25 -5.73690 117.61241 33885 ft 433 kts 251°
2026-04-21 13:26 -5.75672 117.55432 33886 ft 446 kts 251°
2026-04-21 13:26 -5.77706 117.49466 33890 ft 457 kts 251°
2026-04-21 13:27 -5.79774 117.43400 33890 ft 464 kts 251°
2026-04-21 13:27 -5.81864 117.37265 33888 ft 463 kts 251°
2026-04-21 13:28 -5.83949 117.31144 33887 ft 463 kts 251°
2026-04-21 13:28 -5.86036 117.25013 33889 ft 463 kts 251°
2026-04-21 13:29 -5.87898 117.18820 33888 ft 463 kts 258°
2026-04-21 13:29 -5.89070 117.12465 33891 ft 463 kts 260°
2026-04-21 13:30 -5.90183 117.06126 33890 ft 464 kts 260°
2026-04-21 13:30 -5.91308 116.99751 33887 ft 464 kts 260°
2026-04-21 13:31 -5.92437 116.93368 33885 ft 464 kts 260°
2026-04-21 13:31 -5.93566 116.86987 33887 ft 464 kts 260°
2026-04-21 13:32 -5.94694 116.80604 33887 ft 464 kts 260°
2026-04-21 13:32 -5.95823 116.74216 33888 ft 464 kts 260°
2026-04-21 13:33 -5.96951 116.67828 33889 ft 464 kts 260°
2026-04-21 13:33 -5.98071 116.61484 33887 ft 464 kts 260°
2026-04-21 13:34 -5.99197 116.55096 33891 ft 464 kts 260°
2026-04-21 13:34 -6.00322 116.48715 33888 ft 464 kts 260°
2026-04-21 13:35 -6.01446 116.42333 33887 ft 464 kts 260°
2026-04-21 13:35 -6.02568 116.35956 33884 ft 464 kts 260°